TRA55R EHAM-LPPT

Flight info

Callsign TRA55R
Flight time N/A
Altitude 23000
Route WOODY N872 CIV/N0452F330 N872 MEDIL DCT KOVIN/N0455F350 DCT NIDUV DCT KIHVI UN872 ERIGA UZ218 FUJTI DCT ATLEN DCT ABUPI DCT XAMAX
Aircraft B738/M-SDE2E3FGHIRWXY/LB1

Departure

Time 2026-05-04 09:02
Airport Amsterdam Airport Schiphol (EHAM)

Arrival

Time N/A
Airport Lisbon Humberto Delgado Airport (LPPT)
Time Latitude Longitude Altitude Speed Heading
2026-05-04 08:38 52.30703 4.77025 -3 ft 0 kts
2026-05-04 08:50 52.30701 4.77025 -3 ft 2 kts
2026-05-04 08:51 52.30676 4.77019 -3 ft 4 kts 20°
2026-05-04 08:51 52.30655 4.76998 -3 ft 4 kts 68°
2026-05-04 08:51 52.30653 4.76979 -3 ft 1 kts 102°
2026-05-04 08:54 52.30563 4.77071 -4 ft 10 kts 144°
2026-05-04 08:55 52.30508 4.77129 -4 ft 9 kts 149°
2026-05-04 08:55 52.30470 4.77209 -4 ft 9 kts 97°
2026-05-04 08:55 52.30497 4.77303 -4 ft 10 kts 57°
2026-05-04 08:55 52.30534 4.77400 -4 ft 10 kts 58°
2026-05-04 08:57 52.31209 4.77639 -4 ft 17 kts
2026-05-04 09:01 52.32023 4.78007 -10 ft 5 kts 183°
2026-05-04 09:01 52.31779 4.77985 -3 ft 76 kts 183°
2026-05-04 09:01 52.30979 4.77910 -8 ft 152 kts 183°
2026-05-04 09:01 52.29770 4.77785 430 ft 187 kts 184°
2026-05-04 09:02 52.28407 4.77606 1270 ft 204 kts 183°
2026-05-04 09:02 52.26931 4.77910 1830 ft 227 kts 163°
2026-05-04 09:02 52.25405 4.78684 2455 ft 234 kts 162°
2026-05-04 09:02 52.23831 4.79519 2948 ft 241 kts 162°
2026-05-04 09:03 52.22211 4.80356 3518 ft 246 kts 163°
2026-05-04 09:03 52.20491 4.80918 3813 ft 265 kts 181°
2026-05-04 09:03 52.18630 4.80637 4489 ft 271 kts 187°
2026-05-04 09:03 52.16754 4.80276 5357 ft 271 kts 187°
2026-05-04 09:04 52.14899 4.79935 6158 ft 275 kts 187°
2026-05-04 09:04 52.12996 4.79630 7012 ft 274 kts 186°
2026-05-04 09:04 52.11099 4.79348 7841 ft 274 kts 186°
2026-05-04 09:04 52.09192 4.79073 8619 ft 276 kts 186°
2026-05-04 09:05 52.07269 4.78801 9410 ft 278 kts 187°
2026-05-04 09:05 52.05338 4.78529 10160 ft 281 kts 187°
2026-05-04 09:05 52.03334 4.78247 10478 ft 300 kts 187°
2026-05-04 09:05 52.01176 4.77943 10651 ft 322 kts 187°
2026-05-04 09:06 51.98874 4.77622 10817 ft 343 kts 186°
2026-05-04 09:07 51.82321 4.68858 14945 ft 373 kts 207°
2026-05-04 09:08 51.79978 4.67028 15565 ft 376 kts 207°
2026-05-04 09:08 51.77614 4.65187 16149 ft 379 kts 207°
2026-05-04 09:08 51.75239 4.63342 16719 ft 382 kts 207°
2026-05-04 09:08 51.72824 4.61468 17288 ft 385 kts 207°
2026-05-04 09:09 51.70399 4.59588 17814 ft 389 kts 207°
2026-05-04 09:09 51.67941 4.57686 18306 ft 393 kts 207°
2026-05-04 09:09 51.65472 4.55776 18825 ft 395 kts 207°
2026-05-04 09:09 51.62999 4.53862 19427 ft 394 kts 207°
2026-05-04 09:10 51.60534 4.51955 20008 ft 393 kts 207°
2026-05-04 09:10 51.58066 4.50046 20538 ft 394 kts 207°
2026-05-04 09:10 51.55593 4.48135 21038 ft 395 kts 207°
2026-05-04 09:10 51.53111 4.46220 21539 ft 396 kts 207°
2026-05-04 09:11 51.50621 4.44301 22100 ft 397 kts 207°
2026-05-04 09:11 51.48123 4.42377 22637 ft 400 kts 206°
2026-05-04 09:11 51.45597 4.40430 23103 ft 404 kts 206°
2026-05-04 09:11 51.43070 4.38484 23794 ft 404 kts 206°
2026-05-04 09:12 51.40491 4.36618 24127 ft 410 kts 206°
2026-05-04 09:12 51.37937 4.34653 24670 ft 405 kts 206°
2026-05-04 09:14 51.19810 4.20910 26909 ft 416 kts 206°
2026-05-04 09:14 51.17192 4.18927 27218 ft 417 kts 206°
2026-05-04 09:14 51.14512 4.17153 27506 ft 419 kts 201°
2026-05-04 09:14 51.11748 4.15635 27793 ft 420 kts 200°
2026-05-04 09:15 51.09004 4.14188 28083 ft 422 kts 200°
2026-05-04 09:15 51.06222 4.12723 28427 ft 421 kts 200°
2026-05-04 09:15 51.03451 4.11245 28891 ft 418 kts 200°
2026-05-04 09:15 51.00709 4.09766 29403 ft 414 kts 201°
2026-05-04 09:17 50.79357 3.97375 32016 ft 403 kts 205°
2026-05-04 09:18 50.76772 3.95688 32435 ft 400 kts 205°
2026-05-04 09:18 50.74202 3.94024 32701 ft 400 kts 205°
2026-05-04 09:18 50.71621 3.92364 32891 ft 401 kts 204°
2026-05-04 09:18 50.69035 3.90709 33142 ft 401 kts 204°
2026-05-04 09:19 50.66455 3.89064 33448 ft 399 kts 205°
2026-05-04 09:19 50.63879 3.87422 33748 ft 398 kts 205°
2026-05-04 09:19 50.61311 3.85788 33986 ft 398 kts 205°
2026-05-04 09:19 50.58741 3.84154 34128 ft 400 kts 205°
2026-05-04 09:20 50.56162 3.82497 34332 ft 399 kts 205°
2026-05-04 09:20 50.53610 3.80774 34481 ft 400 kts 206°
2026-05-04 09:20 50.51061 3.79017 34582 ft 402 kts 206°
2026-05-04 09:20 50.48493 3.77242 34728 ft 403 kts 205°
2026-05-04 09:21 50.45926 3.75477 34901 ft 403 kts 205°
2026-05-04 09:21 50.43352 3.73718 34982 ft 405 kts 205°
2026-05-04 09:21 50.38158 3.70185 34994 ft 406 kts 205°
2026-05-04 09:22 50.32996 3.66682 34990 ft 403 kts 204°
2026-05-04 09:22 50.27852 3.63209 34991 ft 401 kts 204°
2026-05-04 09:23 50.22743 3.59764 34996 ft 399 kts 204°
2026-05-04 09:23 50.17642 3.56329 34995 ft 399 kts 204°
2026-05-04 09:25 49.97232 3.42663 34993 ft 402 kts 204°
2026-05-04 09:26 49.92076 3.39231 34993 ft 404 kts 204°
2026-05-04 09:26 49.86901 3.35794 34993 ft 405 kts 204°
2026-05-04 09:27 49.81713 3.32357 34986 ft 406 kts 204°
2026-05-04 09:27 49.76517 3.28922 34991 ft 407 kts 204°
2026-05-04 09:28 49.71308 3.25486 34989 ft 407 kts 204°
2026-05-04 09:28 49.66105 3.22063 34984 ft 406 kts 204°
2026-05-04 09:29 49.60900 3.18645 34986 ft 406 kts 204°
2026-05-04 09:29 49.55705 3.15242 34984 ft 406 kts 204°
2026-05-04 09:30 49.50663 3.11398 34984 ft 406 kts 216°
2026-05-04 09:30 49.46631 3.05311 34985 ft 409 kts 231°
2026-05-04 09:31 49.43737 2.97729 34987 ft 412 kts 237°
2026-05-04 09:31 49.40943 2.90059 34987 ft 412 kts 237°
2026-05-04 09:32 49.38127 2.82476 34992 ft 411 kts 237°
2026-05-04 09:34 49.27053 2.51669 34992 ft 414 kts 238°
2026-05-04 09:34 49.24306 2.43904 34990 ft 416 kts 238°
2026-05-04 09:35 49.21539 2.36107 35001 ft 417 kts 237°
2026-05-04 09:35 49.18745 2.28310 34995 ft 418 kts 237°
2026-05-04 09:37 49.07529 1.96960 34991 ft 424 kts 241°
2026-05-04 09:38 49.05103 1.88760 34997 ft 423 kts 241°
2026-05-04 09:38 49.03086 1.81971 34985 ft 423 kts 241°
2026-05-04 09:39 49.00643 1.73838 34999 ft 422 kts 241°
2026-05-04 09:39 48.98181 1.65712 34989 ft 422 kts 241°
2026-05-04 09:40 48.95716 1.57608 34989 ft 422 kts 241°
2026-05-04 09:40 48.93247 1.49517 34989 ft 422 kts 241°
2026-05-04 09:42 48.83288 1.17139 34990 ft 426 kts 240°
2026-05-04 09:43 48.80759 1.08984 34988 ft 428 kts 240°
2026-05-04 09:43 48.78215 1.00803 34988 ft 430 kts 240°
2026-05-04 09:44 48.75669 0.92640 34984 ft 432 kts 240°
2026-05-04 09:46 48.63380 0.61451 34971 ft 432 kts 235°
2026-05-04 09:46 48.60233 0.53734 34974 ft 431 kts 235°
2026-05-04 09:47 48.57089 0.46036 34970 ft 430 kts 235°
2026-05-04 09:49 48.44560 0.15591 34965 ft 423 kts 235°
2026-05-04 09:51 48.33394 -0.10301 34967 ft 422 kts 230°
2026-05-04 09:51 48.29827 -0.17337 34975 ft 425 kts 230°
2026-05-04 09:52 48.26268 -0.24449 34964 ft 427 kts 231°
2026-05-04 09:52 48.22671 -0.31568 34982 ft 429 kts 230°
2026-05-04 09:53 48.19029 -0.38680 34977 ft 431 kts 230°
2026-05-04 09:53 48.15373 -0.45808 34964 ft 432 kts 230°
2026-05-04 09:54 48.11736 -0.52893 34963 ft 432 kts 230°
2026-05-04 09:54 48.08076 -0.60008 34962 ft 431 kts 230°
2026-05-04 09:55 48.04419 -0.67100 34958 ft 430 kts 230°
2026-05-04 09:55 48.00768 -0.74163 34959 ft 429 kts 230°
2026-05-04 09:56 47.97124 -0.81191 34962 ft 427 kts 230°
2026-05-04 09:56 47.93487 -0.88190 34971 ft 426 kts 230°
2026-05-04 09:57 47.89855 -0.95160 34976 ft 425 kts 230°
2026-05-04 09:57 47.86228 -1.02102 34979 ft 424 kts 230°
2026-05-04 09:58 47.82607 -1.09016 34980 ft 423 kts 230°
2026-05-04 09:58 47.78987 -1.15911 34976 ft 422 kts 230°
2026-05-04 10:00 47.64462 -1.43406 34992 ft 425 kts 229°
2026-05-04 10:04 47.36853 -1.89721 34990 ft 432 kts 226°
2026-05-04 10:04 47.32309 -1.95379 34992 ft 427 kts 210°
2026-05-04 10:05 47.27215 -1.99853 34986 ft 426 kts 210°
2026-05-04 10:05 47.22140 -2.04320 34992 ft 424 kts 210°
2026-05-04 10:06 47.17094 -2.08799 35003 ft 423 kts 210°
2026-05-04 10:06 47.12062 -2.13274 34996 ft 423 kts 210°
2026-05-04 10:08 46.94313 -2.28901 34990 ft 426 kts 211°
2026-05-04 10:08 46.89288 -2.33409 34980 ft 421 kts 210°
2026-05-04 10:09 46.84296 -2.37800 34985 ft 417 kts 210°
2026-05-04 10:09 46.79317 -2.42165 35003 ft 420 kts 210°
2026-05-04 10:10 46.74265 -2.46590 35003 ft 428 kts 210°
2026-05-04 10:10 46.69167 -2.51048 35001 ft 432 kts 210°
2026-05-04 10:11 46.63998 -2.55559 34990 ft 431 kts 210°
2026-05-04 10:11 46.58905 -2.59994 34992 ft 423 kts 210°
2026-05-04 10:12 46.53849 -2.64387 34996 ft 423 kts 210°
2026-05-04 10:12 46.48795 -2.68767 35002 ft 423 kts 210°
2026-05-04 10:13 46.43738 -2.73142 35001 ft 423 kts 210°
2026-05-04 10:13 46.38671 -2.77516 35000 ft 424 kts 210°
2026-05-04 10:14 46.33604 -2.81881 35011 ft 425 kts 210°
2026-05-04 10:16 46.14653 -3.02444 35006 ft 429 kts 219°
2026-05-04 10:16 46.10098 -3.08022 35008 ft 429 kts 219°
2026-05-04 10:17 46.05564 -3.13533 35004 ft 429 kts 219°
2026-05-04 10:19 45.87274 -3.35613 35009 ft 429 kts 219°
2026-05-04 10:19 45.82691 -3.41116 35008 ft 429 kts 218°
2026-05-04 10:20 45.78108 -3.46606 35008 ft 429 kts 218°
2026-05-04 10:20 45.73521 -3.52089 35008 ft 429 kts 218°
2026-05-04 10:21 45.68929 -3.57565 35016 ft 430 kts 219°
2026-05-04 10:21 45.64322 -3.63047 35015 ft 431 kts 219°
2026-05-04 10:22 45.57412 -3.71249 35012 ft 433 kts 219°
2026-05-04 10:23 45.52738 -3.76780 35021 ft 434 kts 219°
2026-05-04 10:25 45.34107 -3.98708 35018 ft 436 kts 219°
2026-05-04 10:25 45.29425 -4.04188 35014 ft 435 kts 219°
2026-05-04 10:26 45.24758 -4.09639 35015 ft 434 kts 219°
2026-05-04 10:26 45.20090 -4.15079 35017 ft 433 kts 219°
2026-05-04 10:27 45.15436 -4.20491 35019 ft 432 kts 219°
2026-05-04 10:27 45.10786 -4.25886 35013 ft 432 kts 219°
2026-05-04 10:28 45.06146 -4.31258 35017 ft 430 kts 219°
2026-05-04 10:28 45.02293 -4.35709 35024 ft 430 kts 219°
2026-05-04 10:29 44.97667 -4.41044 35023 ft 429 kts 219°
2026-05-04 10:29 44.93042 -4.46365 35019 ft 429 kts 218°
2026-05-04 10:30 44.88413 -4.51681 35023 ft 428 kts 218°
2026-05-04 10:30 44.83792 -4.56976 35020 ft 428 kts 218°
2026-05-04 10:31 44.79161 -4.62271 35027 ft 429 kts 219°
2026-05-04 10:32 44.62859 -4.80822 35031 ft 432 kts 218°
2026-05-04 10:33 44.58177 -4.86125 35027 ft 433 kts 218°
2026-05-04 10:33 44.53515 -4.91396 35028 ft 434 kts 218°
2026-05-04 10:34 44.48721 -4.96528 35037 ft 434 kts 213°
2026-05-04 10:34 44.43600 -5.01009 35040 ft 434 kts 212°
2026-05-04 10:35 44.38440 -5.05406 35033 ft 434 kts 212°
2026-05-04 10:35 44.33290 -5.09837 35035 ft 434 kts 212°
2026-05-04 10:36 44.28155 -5.14288 35030 ft 434 kts 212°
2026-05-04 10:36 44.23055 -5.18714 35034 ft 434 kts 212°
2026-05-04 10:37 44.17906 -5.23175 35041 ft 433 kts 212°
2026-05-04 10:37 44.12784 -5.27604 35040 ft 433 kts 212°
2026-05-04 10:39 43.94876 -5.43011 35043 ft 433 kts 212°
2026-05-04 10:40 43.89787 -5.47369 35037 ft 433 kts 212°
2026-05-04 10:40 43.84668 -5.51743 35048 ft 432 kts 212°
2026-05-04 10:41 43.79542 -5.56116 35047 ft 433 kts 212°
2026-05-04 10:41 43.74412 -5.60482 35044 ft 433 kts 212°
2026-05-04 10:42 43.69275 -5.64845 35046 ft 433 kts 212°
2026-05-04 10:42 43.64137 -5.69200 35047 ft 433 kts 212°
2026-05-04 10:43 43.58997 -5.73548 35050 ft 434 kts 212°
2026-05-04 10:45 43.38385 -5.90897 35045 ft 434 kts 212°
2026-05-04 10:45 43.33232 -5.95213 35044 ft 434 kts 212°
2026-05-04 10:46 43.28075 -5.99523 35039 ft 434 kts 212°
2026-05-04 10:46 43.22920 -6.03823 35030 ft 433 kts 213°
2026-05-04 10:47 43.17771 -6.08108 35035 ft 433 kts 212°
2026-05-04 10:47 43.12616 -6.12391 35030 ft 433 kts 213°
2026-05-04 10:49 42.92018 -6.29418 35021 ft 433 kts 213°
2026-05-04 10:50 42.86863 -6.33659 35018 ft 433 kts 213°
2026-05-04 10:52 42.66189 -6.50580 35027 ft 434 kts 214°
2026-05-04 10:52 42.61007 -6.54801 35023 ft 435 kts 214°
2026-05-04 10:54 42.40276 -6.71604 35017 ft 434 kts 214°
2026-05-04 10:56 42.19525 -6.88293 35015 ft 434 kts 214°
2026-05-04 10:57 42.14337 -6.92445 35023 ft 433 kts 214°
2026-05-04 10:57 42.09151 -6.96589 35034 ft 434 kts 214°
2026-05-04 10:58 42.03963 -7.00725 35036 ft 434 kts 214°
2026-05-04 10:58 41.98756 -7.04869 35033 ft 434 kts 214°
2026-05-04 10:59 41.93550 -7.09003 35023 ft 434 kts 214°
2026-05-04 10:59 41.88351 -7.13125 35037 ft 434 kts 214°
2026-05-04 11:00 41.83158 -7.17235 35041 ft 433 kts 214°
2026-05-04 11:02 41.62350 -7.33506 35031 ft 432 kts 214°
2026-05-04 11:05 41.23300 -7.63575 35055 ft 433 kts 215°
2026-05-04 11:06 41.18083 -7.67562 35045 ft 433 kts 215°
2026-05-04 11:06 41.12853 -7.71552 35047 ft 434 kts 215°
2026-05-04 11:10 40.76285 -7.99234 35056 ft 432 kts 215°
2026-05-04 11:12 40.55407 -8.14881 35063 ft 431 kts 215°
2026-05-04 11:12 40.50194 -8.18770 35075 ft 430 kts 215°
2026-05-04 11:13 40.44990 -8.22647 35081 ft 431 kts 215°
2026-05-04 11:13 40.39772 -8.26526 35081 ft 431 kts 215°
2026-05-04 11:14 40.34553 -8.30399 35086 ft 431 kts 215°
2026-05-04 11:16 40.14421 -8.45272 31152 ft 424 kts 215°
2026-05-04 11:16 40.11862 -8.47157 30702 ft 420 kts 215°
2026-05-04 11:16 40.09371 -8.49112 30216 ft 413 kts 220°
2026-05-04 11:17 40.06904 -8.51031 29695 ft 418 kts 207°
2026-05-04 11:17 40.04087 -8.52017 29263 ft 420 kts 197°
2026-05-04 11:19 39.84698 -8.58413 27003 ft 407 kts 202°
2026-05-04 11:19 39.82016 -8.59541 26736 ft 402 kts 206°
2026-05-04 11:19 39.79439 -8.60875 26512 ft 397 kts 208°
2026-05-04 11:19 39.76914 -8.62277 26322 ft 393 kts 208°
2026-05-04 11:20 39.74402 -8.63694 26189 ft 394 kts 208°
2026-05-04 11:20 39.71881 -8.65130 26096 ft 398 kts 208°
2026-05-04 11:20 39.69342 -8.66584 25936 ft 400 kts 209°
2026-05-04 11:20 39.66837 -8.68118 25667 ft 395 kts 212°
2026-05-04 11:22 39.50687 -8.79722 21259 ft 365 kts 214°
2026-05-04 11:22 39.48485 -8.81338 20628 ft 362 kts 213°
2026-05-04 11:23 39.46306 -8.82945 19989 ft 360 kts 214°
2026-05-04 11:23 39.44141 -8.84545 19390 ft 358 kts 214°
2026-05-04 11:24 39.31401 -8.94069 15588 ft 347 kts 214°
2026-05-04 11:25 39.29324 -8.95629 14976 ft 344 kts 214°
2026-05-04 11:25 39.27269 -8.97173 14379 ft 340 kts 214°
2026-05-04 11:25 39.25235 -8.98700 13769 ft 335 kts 213°
2026-05-04 11:26 39.21279 -9.01675 12458 ft 328 kts 214°